Location: Unspecified
(0.0000°N, 0.0000°E)
Time: 16:43:44
(UTC+00:00)

Vanguard 2 Rocket - Pass Details

Date: 19 November 2019
Orbit: 554 x 3326 km, 32.9° (Epoch: 13 December)

Event Time Altitude Azimuth Distance (km) Brightness Sun altitude
Rises 09:19:08 0° 297° (WNW) 5,384 10.5 49.3°
Reaches altitude 10° 09:22:09 10° 295° (WNW) 4,691 10.2 49.9°
Maximum altitude 09:36:40 69° 214° (SW) 3,120 10.5 53.0°
Drops below altitude 10° 09:57:04 10° 134° (SE) 6,267 11.9 57.1°
Sets 10:01:54 0° 131° (SE) 7,198 12.0 58.1°
